Location: Trois-Rivi�res
(46.3500°N, 72.5500°W)
Time: 08:15:25
(UTC-05:00)

OTV 5 (USA 277) - Pass Details

Date: 12 October 2017
Orbit: 404 x 417 km, 43.0° (Epoch: 07 September)

Event Time Altitude Azimuth Distance (km) Brightness Sun altitude
Rises 19:38:47 0° 242° (WSW) 2,350 ? -16.3°
Reaches altitude 10° 19:40:59 10° 234° (SW) 1,489 ? -16.7°
Maximum altitude 19:44:06 35° 166° (SSE) 687 ? -17.2°
Enters shadow 19:44:25 34° 152° (SSE) 700 ? -17.3°
